Location: Unspecified
(43.4680°N, 87.1740°E)
Time: 02:45:32
(UTC+00:00)

Cosmos 2278 - Pass Details

Date: 17 January 2020
Orbit: 840 x 852 km, 71.1° (Epoch: 22 February)

Event Time Altitude Azimuth Distance (km) Brightness Sun altitude
Rises 23:35:17 0° 196° (SSW) 3,403 6.8 -22.3°
Reaches altitude 10° 23:37:44 10° 195° (SSW) 2,472 6.1 -21.8°
Maximum altitude 23:43:23 73° 112° (ESE) 894 3.9 -20.8°
Drops below altitude 10° 23:49:05 10° 29° (NNE) 2,489 6.4 -19.8°
Sets 23:51:33 0° 27° (NNE) 3,428 7.1 -19.3°
